Location: Asheville, NC
(35.6000°N, 82.5500°W)
Time: 22:50:12
(UTC-05:00)

Vanguard 2 Rocket - Pass Details

Date: 09 December 2017
Orbit: 556 x 3326 km, 32.9° (Epoch: 17 January)

Event Time Altitude Azimuth Distance (km) Brightness Sun altitude
Rises 17:01:54 0° 174° (S) 4,669 10.9 1.9°
Reaches altitude 10° 17:07:40 10° 146° (SSE) 4,329 10.3 0.8°
Maximum altitude 17:11:59 12° 125° (SE) 4,562 10.2 0.1°
Drops below altitude 10° 17:16:59 10° 105° (ESE) 5,215 10.3 -0.8°
Sets 17:25:57 0° 82° (E) 6,856 10.7 -2.4°
